Weather History for K0E0 - May, 2014

Change the Weather History Date:

Saturday, May 10, 2014

  Actual Average (KABQ) Record (KABQ)
Temperature  
Mean Temperature 56 °F 64 °F  
Max Temperature 77 °F 77 °F 93 °F (2000)
Min Temperature 36 °F 51 °F 34 °F (1912)
Degree Days  
Heating Degree Days 8 3  
Month to date heating degree days 39  
Since 1 July heating degree days 4143  
Cooling Degree Days 0 2  
Month to date cooling degree days 13  
Year to date cooling degree days 20  
Growing Degree Days 6 (Base 50)    
Moisture  
Dew Point 22 °F    
Average Humidity 25    
Maximum Humidity 50    
Minimum Humidity 12    
Precipitation  
Precipitation 0.00 in 0.01 in 1.02 in (1932)
Month to date precipitation 0.16  
Year to date precipitation 2.20  
Snow  
Snow 0.00 in - - ()
Month to date snowfall  
Since 1 July snowfall  
Snow Depth -    
Sea Level Pressure  
Sea Level Pressure 29.92 in    
Wind  
Wind Speed 7 mph (SSW)    
Max Wind Speed 23 mph    
Max Gust Speed 28 mph    
Visibility 10 miles    
Events      
T = Trace of Precipitation, MM = Missing Value Source: NWS Daily Summary

Daily Weather History Graph

Daily Weather History Graph

Search for Another Location

Airport or City:

Trip Planner

Search our weather history database for the weather conditions in past years. The results will help you decide how hot, cold, wet, or windy it might be!

Date:

Astronomy

May. 10, 2014 Rise Set
Actual Time 6:04 AM MDT 7:56 PM MDT
Civil Twilight 5:36 AM MDT 8:24 PM MDT
Nautical Twilight 5:03 AM MDT 8:58 PM MDT
Astronomical Twilight 4:27 AM MDT 9:34 PM MDT
Moon 4:04 PM MDT (5/10) 3:28 AM MDT (5/10)
Length of Visible Light 14h 47m
Length of Day
13h 52m
Waxing Gibbous, 82% of the Moon is Illuminated
May 10
Waxing Gibbous
May 14
Full
May 21
Last Quarter
May 28
New
Jun 5
First Quarter

Hourly Weather History & Observations

Time (MDT) Temp. Windchill Dew Point Humidity Pressure Visibility Wind Dir Wind Speed Gust Speed Precip Events Conditions
12:15 AM 43.5 °F 40.9 °F 15.6 °F 33% 30.02 in 10.0 mi SSE 4.6 mph - N/A   Clear
12:35 AM 46.2 °F - 16.5 °F 31% 30.02 in 10.0 mi Calm Calm - N/A   Clear
12:55 AM 48.6 °F - 17.1 °F 29% 30.02 in 10.0 mi Calm Calm - N/A   Clear
1:15 AM 51.8 °F - 18.1 °F 27% 30.02 in 10.0 mi West 4.6 mph - N/A   Clear
1:35 AM 42.8 °F 36.2 °F 15.8 °F 34% 30.02 in 10.0 mi SW 12.7 mph - N/A   Clear
1:55 AM 45.7 °F 39.5 °F 17.6 °F 33% 30.01 in 10.0 mi WSW 13.8 mph - N/A   Clear
2:15 AM 50.9 °F - 19.2 °F 29% 30.00 in 10.0 mi West 13.8 mph - N/A   Clear
2:35 AM 49.1 °F - 19.4 °F 31% 30.00 in 10.0 mi West 10.4 mph - N/A   Clear
2:55 AM 50.7 °F - 21.2 °F 31% 29.99 in 10.0 mi West 11.5 mph - N/A   Clear
3:15 AM 48.0 °F - 20.8 °F 34% 30.01 in 10.0 mi SE 3.5 mph - N/A   Clear
3:35 AM 47.3 °F - 21.2 °F 36% 30.00 in 10.0 mi North 6.9 mph - N/A   Clear
3:55 AM 46.2 °F 42.7 °F 21.4 °F 37% 30.01 in 10.0 mi South 6.9 mph - N/A   Clear
4:15 AM 49.6 °F - 21.9 °F 34% 30.01 in 10.0 mi West 6.9 mph - N/A   Clear
4:35 AM 45.5 °F 42.5 °F 21.4 °F 38% 30.01 in 10.0 mi WNW 5.8 mph - N/A   Clear
4:55 AM 42.1 °F - 21.2 °F 43% 30.01 in 10.0 mi Calm Calm - N/A   Clear
5:15 AM 44.6 °F 40.7 °F 21.4 °F 40% 30.01 in 10.0 mi WNW 6.9 mph - N/A   Clear
5:35 AM 41.9 °F 38.2 °F 20.7 °F 43% 30.02 in 10.0 mi ESE 5.8 mph - N/A   Clear
5:55 AM 43.9 °F - 21.4 °F 41% 30.02 in 10.0 mi Calm Calm - N/A   Clear
6:15 AM 36.7 °F 32.0 °F 19.4 °F 50% 30.02 in 10.0 mi ENE 5.8 mph - N/A   Clear
6:35 AM 38.1 °F 34.6 °F 20.7 °F 49% 30.02 in 10.0 mi East 4.6 mph - N/A   Clear
6:55 AM 41.5 °F - 21.7 °F 45% 30.04 in 10.0 mi Calm Calm - N/A   Clear
7:15 AM 47.3 °F - 23.2 °F 39% 30.04 in 10.0 mi Calm Calm - N/A   Clear
7:35 AM 50.0 °F - 23.7 °F 36% 30.03 in 10.0 mi Calm Calm - N/A   Clear
7:55 AM 52.3 °F - 24.4 °F 34% 30.03 in 10.0 mi Calm Calm - N/A   Clear
8:15 AM 54.9 °F - 25.0 °F 32% 30.02 in 10.0 mi Calm Calm - N/A   Clear
8:35 AM 57.4 °F - 24.8 °F 29% 30.02 in 10.0 mi Calm Calm - N/A   Clear
8:55 AM 58.1 °F - 24.8 °F 28% 30.02 in 10.0 mi SW 4.6 mph - N/A   Clear
9:15 AM 59.2 °F - 25.2 °F 27% 30.02 in 10.0 mi East 4.6 mph - N/A   Clear
9:35 AM 61.0 °F - 25.5 °F 26% 30.02 in 10.0 mi Calm Calm - N/A   Clear
9:55 AM 62.4 °F - 25.7 °F 25% 30.01 in 10.0 mi Calm Calm - N/A   Clear
10:15 AM 63.0 °F - 26.4 °F 25% 30.00 in 10.0 mi SSE 6.9 mph - N/A   Clear
10:35 AM 64.2 °F - 26.2 °F 24% 30.00 in 10.0 mi SSE 6.9 mph - N/A   Clear
10:55 AM 65.1 °F - 26.1 °F 23% 29.99 in 10.0 mi SE 5.8 mph - N/A   Clear
11:15 AM 66.4 °F - 26.1 °F 22% 29.98 in 10.0 mi ESE 5.8 mph - N/A   Clear
11:35 AM 67.6 °F - 25.7 °F 21% 29.97 in 10.0 mi SSE 4.6 mph - N/A   Clear
11:55 AM 69.8 °F - 25.5 °F 19% 29.96 in 10.0 mi South 5.8 mph - N/A   Clear
12:15 PM 69.8 °F - 25.3 °F 19% 29.95 in 10.0 mi South 10.4 mph 19.6 mph N/A   Clear
12:35 PM 71.8 °F - 25.0 °F 17% 29.94 in 10.0 mi South 8.1 mph - N/A   Clear
12:55 PM 72.0 °F - 24.3 °F 17% 29.93 in 10.0 mi SE 4.6 mph 11.5 mph N/A   Clear
1:15 PM 72.9 °F - 24.4 °F 16% 29.92 in 10.0 mi South 10.4 mph 18.4 mph N/A   Clear
1:35 PM 74.5 °F - 23.9 °F 15% 29.91 in 10.0 mi South 19.6 mph 23.0 mph N/A   Clear
1:55 PM 74.5 °F - 23.4 °F 15% 29.90 in 10.0 mi South 15.0 mph 23.0 mph N/A   Clear
2:15 PM 74.5 °F - 22.6 °F 14% 29.89 in 10.0 mi South 15.0 mph 24.2 mph N/A   Clear
2:35 PM 75.9 °F - 22.3 °F 14% 29.89 in 10.0 mi SW 9.2 mph 23.0 mph N/A   Clear
2:55 PM 76.5 °F - 21.4 °F 13% 29.88 in 10.0 mi WSW 13.8 mph 20.7 mph N/A   Clear
3:15 PM 76.5 °F - 20.8 °F 13% 29.87 in 10.0 mi SSW 20.7 mph 26.5 mph N/A   Clear
3:35 PM 76.3 °F - 19.8 °F 12% 29.86 in 10.0 mi WSW 12.7 mph 25.3 mph N/A   Clear
3:55 PM 75.7 °F - 20.3 °F 13% 29.85 in 10.0 mi SSW 13.8 mph 24.2 mph N/A   Clear
4:15 PM 77.0 °F - 20.3 °F 12% 29.84 in 10.0 mi SSW 16.1 mph 27.6 mph N/A   Clear
4:35 PM 77.5 °F - 20.1 °F 12% 29.83 in 10.0 mi SW 21.9 mph 27.6 mph N/A   Clear
4:55 PM 76.6 °F - 19.9 °F 12% 29.83 in 10.0 mi WSW 17.3 mph 23.0 mph N/A   Clear
5:15 PM 77.2 °F - 21.0 °F 12% 29.82 in 10.0 mi SW 23.0 mph 26.5 mph N/A   Clear
5:35 PM 76.3 °F - 21.4 °F 13% 29.81 in 10.0 mi SSW 15.0 mph 25.3 mph N/A   Clear
5:55 PM 76.3 °F - 21.7 °F 13% 29.81 in 10.0 mi South 15.0 mph 23.0 mph N/A   Clear
6:15 PM 75.4 °F - 21.0 °F 13% 29.79 in 10.0 mi South 18.4 mph 23.0 mph N/A   Clear
6:35 PM 74.5 °F - 20.5 °F 13% 29.79 in 10.0 mi SSW 17.3 mph 24.2 mph N/A   Clear
6:55 PM 73.4 °F - 20.7 °F 14% 29.78 in 10.0 mi SSW 16.1 mph - N/A   Clear
7:15 PM 71.6 °F - 21.2 °F 15% 29.78 in 10.0 mi South 15.0 mph - N/A   Clear
7:55 PM 67.5 °F - 20.8 °F 17% 29.78 in 10.0 mi South 12.7 mph - N/A   Clear
8:15 PM 65.7 °F - 20.1 °F 18% 29.78 in 10.0 mi South 11.5 mph - N/A   Clear
8:35 PM 63.9 °F - 19.2 °F 18% 29.78 in 10.0 mi South 11.5 mph - N/A   Clear
8:55 PM 61.7 °F - 20.3 °F 20% 29.77 in 10.0 mi South 11.5 mph - N/A   Clear
9:15 PM 60.3 °F - 20.1 °F 21% 29.78 in 10.0 mi South 12.7 mph - N/A   Clear
9:35 PM 64.9 °F - 19.8 °F 18% 29.79 in 10.0 mi WSW 17.3 mph - N/A   Clear
9:55 PM 66.0 °F - 19.8 °F 17% 29.80 in 10.0 mi WSW 15.0 mph 25.3 mph N/A   Clear
10:15 PM 64.9 °F - 19.4 °F 17% 29.81 in 10.0 mi West 10.4 mph - N/A   Clear
10:35 PM 58.6 °F - 20.3 °F 23% 29.82 in 10.0 mi South 4.6 mph - N/A   Clear
10:55 PM 59.0 °F - 20.1 °F 22% 29.82 in 10.0 mi WSW 6.9 mph - N/A   Clear
11:15 PM 56.7 °F - 19.4 °F 23% 29.82 in 10.0 mi SW 9.2 mph - N/A   Clear
11:35 PM 57.9 °F - 19.6 °F 23% 29.81 in 10.0 mi West 15.0 mph 19.6 mph N/A   Clear
11:55 PM 60.6 °F - 19.4 °F 20% 29.81 in 10.0 mi WSW 11.5 mph - N/A   Clear